Weather History for PAGS - December, 2013

Change the Weather History Date:

Sunday, December 1, 2013

  Actual Average (WUND) Record (WUND)
Temperature  
Mean Temperature 20 °F -  
Max Temperature 24 °F - - (-1)
Min Temperature 17 °F - - (-1)
Degree Days  
Heating Degree Days 44    
Moisture  
Dew Point 3 °F    
Average Humidity 47    
Maximum Humidity 80    
Minimum Humidity 36    
Precipitation  
Precipitation 0.00 in - - ()
Sea Level Pressure  
Sea Level Pressure 30.17 in    
Wind  
Wind Speed 13 mph (North)    
Max Wind Speed 20 mph    
Max Gust Speed 31 mph    
Visibility 10 miles    
Events      
Averages and records for this station are not official NWS values.
T = Trace of Precipitation, MM = Missing Value Source: NWS Daily Summary

Daily Weather History Graph

Daily Weather History Graph

Search for Another Location

Airport or City:

Trip Planner

Search our weather history database for the weather conditions in past years. The results will help you decide how hot, cold, wet, or windy it might be!

Date:

Astronomy

Dec. 01, 2013 Rise Set
Actual Time 8:26 AM AKST 3:17 PM AKST
Civil Twilight 7:36 AM AKST 4:07 PM AKST
Nautical Twilight 6:44 AM AKST 4:59 PM AKST
Astronomical Twilight 5:56 AM AKST 5:47 PM AKST
Moon 6:35 AM AKST (12/1) 2:48 PM AKST (12/1)
Length of Visible Light 8h 31m
Length of Day
6h 50m
Waning Crescent, 2% of the Moon is Illuminated
Dec 1
Waning Crescent
Dec 2
New
Dec 9
First Quarter
Dec 17
Full
Dec 25
Last Quarter

Hourly Weather History & Observations

Time (AKST) Temp. Windchill Dew Point Humidity Pressure Visibility Wind Dir Wind Speed Gust Speed Precip Events Conditions
12:16 AM 21.2 °F 8.3 °F 15.8 °F 80% 29.92 in 10.0 mi NNW 13.8 mph - N/A   Overcast
12:36 AM 21.2 °F 10.1 °F 12.2 °F 68% 29.93 in 10.0 mi NNW 10.4 mph - N/A   Overcast
12:56 AM 21.2 °F 9.5 °F 15.8 °F 80% 29.93 in 10.0 mi NNW 11.5 mph - N/A   Overcast
1:16 AM 21.2 °F 10.1 °F 14.0 °F 74% 29.93 in 10.0 mi NNW 10.4 mph - N/A   Overcast
1:36 AM 21.2 °F 10.9 °F 12.2 °F 68% 29.93 in 10.0 mi NNW 9.2 mph - N/A   Overcast
1:56 AM 21.2 °F 9.5 °F 10.4 °F 63% 29.94 in 10.0 mi North 11.5 mph 18.4 mph N/A   Overcast
2:16 AM 21.2 °F 9.5 °F 10.4 °F 63% 29.94 in 10.0 mi North 11.5 mph 18.4 mph N/A   Overcast
2:36 AM 23.0 °F 11.1 °F 10.4 °F 59% 29.94 in 10.0 mi North 12.7 mph 18.4 mph N/A   Overcast
2:56 AM 23.0 °F 13.1 °F 8.6 °F 54% 29.95 in 10.0 mi North 9.2 mph 17.3 mph N/A   Overcast
3:16 AM 23.0 °F 11.7 °F 8.6 °F 54% 29.95 in 10.0 mi North 11.5 mph 20.7 mph N/A   Overcast
3:36 AM 21.2 °F 8.3 °F 12.2 °F 68% 29.96 in 10.0 mi North 13.8 mph - N/A   Overcast
3:56 AM 21.2 °F 8.9 °F 12.2 °F 68% 29.97 in 10.0 mi North 12.7 mph 20.7 mph N/A   Overcast
4:16 AM 21.2 °F 9.5 °F 8.6 °F 58% 29.97 in 10.0 mi NNW 11.5 mph - N/A   Scattered Clouds
4:36 AM 21.2 °F 8.9 °F 8.6 °F 58% 29.97 in 10.0 mi North 12.7 mph 18.4 mph N/A   Clear
4:56 AM 21.2 °F 7.8 °F 6.8 °F 54% 29.99 in 10.0 mi North 15.0 mph 23.0 mph N/A   Clear
5:16 AM 21.2 °F 7.8 °F 6.8 °F 54% 30.00 in 10.0 mi North 15.0 mph 25.3 mph N/A   Clear
5:36 AM 21.2 °F 7.8 °F 6.8 °F 54% 30.01 in 10.0 mi North 15.0 mph 21.9 mph N/A   Clear
5:56 AM 21.2 °F 7.8 °F 5.0 °F 50% 30.02 in 10.0 mi NNE 15.0 mph 24.2 mph N/A   Clear
6:16 AM 21.2 °F 7.8 °F 5.0 °F 50% 30.03 in 10.0 mi North 15.0 mph 25.3 mph N/A   Clear
6:36 AM 21.2 °F 7.8 °F 5.0 °F 50% 30.03 in 10.0 mi North 15.0 mph 24.2 mph N/A   Clear
6:56 AM 21.2 °F 6.4 °F 3.2 °F 46% 30.04 in 10.0 mi North 18.4 mph 27.6 mph N/A   Clear
7:16 AM 21.2 °F 7.8 °F 3.2 °F 46% 30.05 in 10.0 mi North 15.0 mph 24.2 mph N/A   Clear
7:36 AM 21.2 °F 6.8 °F 3.2 °F 46% 30.07 in 10.0 mi North 17.3 mph 24.2 mph N/A   Clear
7:56 AM 21.2 °F 7.8 °F 3.2 °F 46% 30.07 in 10.0 mi North 15.0 mph 27.6 mph N/A   Clear
8:16 AM 21.2 °F 6.0 °F 1.4 °F 42% 30.08 in 10.0 mi North 19.6 mph 25.3 mph N/A   Clear
8:36 AM 21.2 °F 6.0 °F 1.4 °F 42% 30.09 in 10.0 mi North 19.6 mph 26.5 mph N/A   Clear
8:56 AM 21.2 °F 8.3 °F 1.4 °F 42% 30.10 in 10.0 mi North 13.8 mph 28.8 mph N/A   Clear
9:16 AM 21.2 °F 8.9 °F 1.4 °F 42% 30.10 in 10.0 mi North 12.7 mph 27.6 mph N/A   Clear
9:36 AM 21.2 °F 7.3 °F 1.4 °F 42% 30.11 in 10.0 mi North 16.1 mph 26.5 mph N/A   Clear
9:56 AM 21.2 °F 6.8 °F 1.4 °F 42% 30.12 in 10.0 mi North 17.3 mph 25.3 mph N/A   Clear
10:16 AM 21.2 °F 7.3 °F 1.4 °F 42% 30.13 in 10.0 mi North 16.1 mph 21.9 mph N/A   Clear
10:36 AM 21.2 °F 6.8 °F 1.4 °F 42% 30.14 in 10.0 mi NNE 17.3 mph 23.0 mph N/A   Clear
10:56 AM 21.2 °F 7.8 °F 1.4 °F 42% 30.14 in 10.0 mi North 15.0 mph 23.0 mph N/A   Clear
11:16 AM 21.2 °F 8.9 °F -0.4 °F 39% 30.15 in 10.0 mi NNE 12.7 mph 23.0 mph N/A   Clear
11:36 AM 21.2 °F 7.3 °F -0.4 °F 39% 30.16 in 10.0 mi North 16.1 mph 26.5 mph N/A   Clear
11:56 AM 21.2 °F 6.8 °F -0.4 °F 39% 30.16 in 10.0 mi North 17.3 mph 24.2 mph N/A   Clear
12:16 PM 21.2 °F 6.4 °F -0.4 °F 39% 30.18 in 10.0 mi NNE 18.4 mph 24.2 mph N/A   Clear
12:36 PM 21.2 °F 8.9 °F -0.4 °F 39% 30.18 in 10.0 mi North 12.7 mph 26.5 mph N/A   Clear
12:56 PM 21.2 °F 8.3 °F -0.4 °F 39% 30.18 in 10.0 mi North 13.8 mph 23.0 mph N/A   Clear
1:16 PM 21.2 °F 7.8 °F -0.4 °F 39% 30.19 in 10.0 mi NNE 15.0 mph 21.9 mph N/A   Clear
1:36 PM 21.2 °F 7.3 °F -0.4 °F 39% 30.20 in 10.0 mi North 16.1 mph 25.3 mph N/A   Clear
1:56 PM 21.2 °F 7.3 °F -0.4 °F 39% 30.20 in 10.0 mi North 16.1 mph 26.5 mph N/A   Clear
2:16 PM 21.2 °F 6.4 °F -0.4 °F 39% 30.22 in 10.0 mi NNE 18.4 mph 27.6 mph N/A   Clear
2:36 PM 21.2 °F 7.8 °F -0.4 °F 39% 30.22 in 10.0 mi North 15.0 mph 20.7 mph N/A   Clear
2:56 PM 21.2 °F 9.5 °F -0.4 °F 39% 30.23 in 10.0 mi North 11.5 mph 25.3 mph N/A   Clear
3:16 PM 19.4 °F 4.5 °F -0.4 °F 42% 30.23 in 10.0 mi North 17.3 mph 29.9 mph N/A   Clear
3:36 PM 19.4 °F 5.0 °F -0.4 °F 42% 30.24 in 9.0 mi North 16.1 mph 26.5 mph N/A   Clear
3:56 PM 19.4 °F 5.5 °F -0.4 °F 42% 30.26 in 10.0 mi North 15.0 mph 25.3 mph N/A   Clear
4:16 PM 21.2 °F 6.8 °F -0.4 °F 39% 30.26 in 10.0 mi North 17.3 mph 24.2 mph N/A   Clear
4:36 PM 21.2 °F 7.3 °F -0.4 °F 39% 30.28 in 10.0 mi North 16.1 mph 25.3 mph N/A   Clear
4:56 PM 21.2 °F 9.5 °F -0.4 °F 39% 30.28 in 10.0 mi North 11.5 mph 26.5 mph N/A   Clear
5:16 PM 21.2 °F 9.5 °F -0.4 °F 39% 30.29 in 10.0 mi North 11.5 mph 23.0 mph N/A   Clear
5:36 PM 21.2 °F 7.3 °F -0.4 °F 39% 30.29 in 10.0 mi North 16.1 mph 25.3 mph N/A   Clear
5:56 PM 21.2 °F 6.0 °F -0.4 °F 39% 30.30 in 10.0 mi North 19.6 mph 31.1 mph N/A   Clear
6:16 PM 21.2 °F 6.4 °F -0.4 °F 39% 30.31 in 10.0 mi North 18.4 mph 26.5 mph N/A   Clear
6:36 PM 21.2 °F 9.5 °F 1.4 °F 42% 30.33 in 10.0 mi North 11.5 mph 21.9 mph N/A   Clear
6:56 PM 23.0 °F 8.7 °F 1.4 °F 39% 30.34 in 10.0 mi NNW 18.4 mph 21.9 mph N/A   Clear
7:16 PM 23.0 °F 8.7 °F 1.4 °F 39% 30.35 in 10.0 mi NNE 18.4 mph 24.2 mph N/A   Clear
7:36 PM 23.0 °F 12.4 °F 1.4 °F 39% 30.36 in 10.0 mi North 10.4 mph 16.1 mph N/A   Clear
7:56 PM 23.0 °F 13.9 °F -0.4 °F 36% 30.36 in 10.0 mi North 8.1 mph - N/A   Clear
8:16 PM 21.2 °F 10.1 °F 1.4 °F 42% 30.38 in 10.0 mi North 10.4 mph - N/A   Clear
8:36 PM 21.2 °F 14.9 °F 1.4 °F 42% 30.38 in 10.0 mi North 4.6 mph - N/A   Clear
8:56 PM 23.0 °F 12.4 °F 1.4 °F 39% 30.38 in 10.0 mi North 10.4 mph - N/A   Clear
9:16 PM 21.2 °F 11.7 °F 1.4 °F 42% 30.39 in 10.0 mi NNW 8.1 mph - N/A   Clear
9:36 PM 21.2 °F 11.7 °F 3.2 °F 46% 30.39 in 10.0 mi NNW 8.1 mph - N/A   Clear
9:56 PM 19.4 °F 9.5 °F 3.2 °F 49% 30.40 in 10.0 mi NNW 8.1 mph - N/A   Clear
10:16 PM 17.6 °F 7.3 °F 6.8 °F 63% 30.40 in 10.0 mi NNW 8.1 mph - N/A   Clear
10:36 PM 17.6 °F 6.4 °F 5.0 °F 58% 30.40 in 10.0 mi North 9.2 mph - N/A   Clear
10:56 PM 19.4 °F 9.5 °F 3.2 °F 49% 30.41 in 10.0 mi North 8.1 mph - N/A   Clear
11:16 PM 19.4 °F 7.2 °F 1.4 °F 46% 30.41 in 10.0 mi NNW 11.5 mph - N/A   Clear
11:36 PM 24.8 °F 14.6 °F 3.2 °F 40% 30.42 in 10.0 mi North 10.4 mph - N/A   Clear
11:56 PM 21.2 °F 14.9 °F 1.4 °F 42% 30.42 in 10.0 mi WNW 4.6 mph - N/A   Clear